{"data":{"norad_id":65245,"epoch":"2026-05-25T02:17:22.202304Z","epoch_age_seconds":77054,"freshness":"FRESH","line1":"1 65245U 25179L   26145.09539586 -.00005704  00000+0 -39160-3 0  9998","line2":"2 65245  97.4456 187.8848 0002636 113.4590 246.6915 15.05645855 43287","mean_motion":15.05645855,"eccentricity":0.0002636,"inclination_deg":97.4456,"raan_deg":187.8848,"arg_perigee_deg":113.459,"mean_anomaly_deg":246.6915,"bstar":-0.0003916,"rev_number":4328,"period_min":95.640020209135,"perigee_km":547.69773703992,"apogee_km":551.34999984976,"semimajor_km":6927.6608684448,"source":"CELESTRAK","updated_at":"2026-05-25T13:38:20.725950Z"}}